• In Deutschland
  • Länderverzeichnis
  • Für 7 Tage
  • Wassertemperatur
  • Satellitenkarten
  • Wetterkarte
  • Widgets
  • user-avatar
    Anmelden

    Stündliche Wetter Vanadzor

    Heute, 25 November, Samstag

    Zeit Temperatur Niederschläge Wind Luftdruck Luftfeuchtigkeit
    00:00 -8°C° 0 mm 2 m/S 633 mmHg 65%
    01:00 -8°C° 0 mm 2 m/S 633 mmHg 66%
    02:00 -8°C° 0 mm 2 m/S 634 mmHg 67%
    03:00 -8°C° 0 mm 2 m/S 634 mmHg 69%
    04:00 -7°C° 0,1 mm 2 m/S 634 mmHg 71%
    05:00 -7°C° 0,1 mm 2 m/S 635 mmHg 73%
    06:00 -7°C° 0,1 mm 2 m/S 635 mmHg 76%
    07:00 -6°C° 0,1 mm 2 m/S 636 mmHg 75%
    08:00 -6°C° 0,1 mm 2 m/S 637 mmHg 74%
    09:00 -5°C° 0,1 mm 2 m/S 637 mmHg 73%
    10:00 -4°C° 0 mm 2 m/S 638 mmHg 68%
    11:00 -4°C° 0 mm 2 m/S 638 mmHg 63%
    12:00 -3°C° 0 mm 2 m/S 638 mmHg 59%
    13:00 -3°C° 0 mm 2 m/S 638 mmHg 59%
    14:00 -3°C° 0 mm 2 m/S 638 mmHg 59%
    15:00 -3°C° 0 mm 2 m/S 638 mmHg 59%
    16:00 -4°C° 0 mm 2 m/S 638 mmHg 62%
    17:00 -4°C° 0 mm 1 m/S 638 mmHg 65%
    18:00 -6°C° 0 mm 1 m/S 638 mmHg 68%
    19:00 -6°C° 0 mm 1 m/S 638 mmHg 68%
    20:00 -6°C° 0 mm 1 m/S 638 mmHg 67%
    21:00 -7°C° 0 mm 2 m/S 638 mmHg 67%
    22:00 -8°C° 0 mm 2 m/S 638 mmHg 67%
    23:00 -8°C° 0 mm 2 m/S 638 mmHg 66%

    Morgen, 26 November, Sonntag

    Zeit Temperatur Niederschläge Wind Luftdruck Luftfeuchtigkeit
    00:00 -8°C° 0 mm 2 m/S 638 mmHg 66%
    01:00 -8°C° 0 mm 2 m/S 638 mmHg 66%
    02:00 -7°C° 0 mm 1 m/S 638 mmHg 66%
    03:00 -7°C° 0 mm 1 m/S 638 mmHg 66%
    04:00 -8°C° 0 mm 2 m/S 638 mmHg 66%
    05:00 -8°C° 0 mm 2 m/S 638 mmHg 66%
    06:00 -8°C° 0 mm 2 m/S 638 mmHg 67%
    07:00 -7°C° 0 mm 2 m/S 638 mmHg 65%
    08:00 -6°C° 0 mm 2 m/S 638 mmHg 63%
    09:00 -5°C° 0 mm 2 m/S 639 mmHg 61%
    10:00 -3°C° 0 mm 2 m/S 638 mmHg 58%
    11:00 -2°C° 0 mm 2 m/S 638 mmHg 54%
    12:00 -1°C° 0 mm 2 m/S 637 mmHg 51%
    13:00 -1°C° 0 mm 2 m/S 637 mmHg 51%
    14:00 -1°C° 0 mm 2 m/S 637 mmHg 51%
    15:00 -1°C° 0 mm 2 m/S 636 mmHg 51%
    16:00 -2°C° 0 mm 2 m/S 636 mmHg 53%
    17:00 -4°C° 0 mm 2 m/S 636 mmHg 54%
    18:00 -5°C° 0 mm 2 m/S 636 mmHg 56%
    19:00 -5°C° 0 mm 2 m/S 636 mmHg 55%
    20:00 -5°C° 0 mm 2 m/S 636 mmHg 55%
    21:00 -5°C° 0 mm 2 m/S 636 mmHg 54%
    22:00 -5°C° 0 mm 2 m/S 636 mmHg 55%
    23:00 -5°C° 0 mm 2 m/S 636 mmHg 56%

    übermorgen, 27 November, Montag

    Zeit Temperatur Niederschläge Wind Luftdruck Luftfeuchtigkeit
    00:00 -5°C° 0 mm 2 m/S 636 mmHg 57%
    01:00 -5°C° 0 mm 2 m/S 635 mmHg 57%
    02:00 -6°C° 0 mm 2 m/S 635 mmHg 58%
    03:00 -6°C° 0 mm 2 m/S 635 mmHg 59%
    04:00 -6°C° 0 mm 2 m/S 635 mmHg 60%
    05:00 -6°C° 0 mm 2 m/S 635 mmHg 61%
    06:00 -6°C° 0 mm 2 m/S 635 mmHg 62%
    07:00 -5°C° 0 mm 2 m/S 635 mmHg 61%
    08:00 -4°C° 0 mm 2 m/S 636 mmHg 60%
    09:00 -2°C° 0 mm 2 m/S 636 mmHg 59%
    10:00 -1°C° 0 mm 2 m/S 636 mmHg 57%
    11:00 +1°C° 0 mm 2 m/S 636 mmHg 55%
    12:00 +3°C° 0 mm 2 m/S 636 mmHg 53%
    13:00 +2°C° 0 mm 2 m/S 635 mmHg 54%
    14:00 +2°C° 0 mm 2 m/S 635 mmHg 55%
    15:00 +2°C° 0 mm 2 m/S 635 mmHg 55%
    16:00 +1°C° 0 mm 2 m/S 634 mmHg 58%
    17:00 -2°C° 0 mm 2 m/S 634 mmHg 61%
    18:00 -3°C° 0 mm 2 m/S 634 mmHg 64%
    19:00 -3°C° 0 mm 2 m/S 635 mmHg 64%
    20:00 -4°C° 0 mm 2 m/S 635 mmHg 64%
    21:00 -2°C° 0 mm 1 m/S 635 mmHg 64%
    22:00 -2°C° 0 mm 1 m/S 635 mmHg 65%
    23:00 -2°C° 0 mm 1 m/S 635 mmHg 65%

    28 November, Dienstag

    Zeit Temperatur Niederschläge Wind Luftdruck Luftfeuchtigkeit
    00:00 -2°C° 0 mm 1 m/S 635 mmHg 65%
    01:00 -2°C° 0 mm 1 m/S 635 mmHg 66%
    02:00 -2°C° 0 mm 1 m/S 635 mmHg 66%
    03:00 -2°C° 0 mm 1 m/S 635 mmHg 66%
    04:00 -3°C° 0 mm 1 m/S 635 mmHg 67%
    05:00 -3°C° 0 mm 1 m/S 635 mmHg 67%
    06:00 -3°C° 0 mm 1 m/S 635 mmHg 67%
    07:00 -2°C° 0 mm 1 m/S 636 mmHg 66%
    08:00 -1°C° 0 mm 1 m/S 636 mmHg 64%
    09:00 0°C° 0 mm 1 m/S 637 mmHg 62%
    10:00 +1°C° 0 mm 1 m/S 637 mmHg 60%
    11:00 +2°C° 0 mm 2 m/S 636 mmHg 57%
    12:00 +3°C° 0 mm 2 m/S 636 mmHg 55%
    13:00 +3°C° 0 mm 2 m/S 636 mmHg 56%
    14:00 +2°C° 0 mm 2 m/S 636 mmHg 56%
    15:00 +3°C° 0 mm 1 m/S 635 mmHg 57%
    16:00 +2°C° 0 mm 1 m/S 635 mmHg 59%
    17:00 +1°C° 0 mm 1 m/S 635 mmHg 62%
    18:00 -1°C° 0 mm 1 m/S 635 mmHg 65%
    19:00 -1°C° 0 mm 1 m/S 635 mmHg 64%
    20:00 -1°C° 0 mm 1 m/S 636 mmHg 63%
    21:00 -1°C° 0 mm 1 m/S 636 mmHg 62%
    22:00 -1°C° 0 mm 1 m/S 636 mmHg 63%
    23:00 -1°C° 0 mm 1 m/S 636 mmHg 64%

    29 November, Mittwoch

    Zeit Temperatur Niederschläge Wind Luftdruck Luftfeuchtigkeit
    00:00 -1°C° 0 mm 1 m/S 636 mmHg 65%
    01:00 -1°C° 0 mm 1 m/S 636 mmHg 66%
    02:00 -1°C° 0 mm 1 m/S 636 mmHg 67%
    03:00 -1°C° 0 mm 1 m/S 636 mmHg 68%
    04:00 -1°C° 0 mm 1 m/S 636 mmHg 69%
    05:00 -3°C° 0 mm 2 m/S 636 mmHg 70%
    06:00 -3°C° 0 mm 2 m/S 636 mmHg 71%
    07:00 -2°C° 0 mm 2 m/S 637 mmHg 70%
    08:00 -1°C° 0 mm 2 m/S 637 mmHg 68%
    09:00 +1°C° 0 mm 2 m/S 637 mmHg 67%
    10:00 +2°C° 0 mm 2 m/S 637 mmHg 66%
    11:00 +3°C° 0 mm 2 m/S 637 mmHg 64%
    12:00 +5°C° 0 mm 2 m/S 637 mmHg 62%
    13:00 +4°C° 0,1 mm 2 m/S 637 mmHg 63%
    14:00 +4°C° 0,1 mm 2 m/S 636 mmHg 64%
    15:00 +4°C° 0,1 mm 2 m/S 636 mmHg 65%
    16:00 +3°C° 0,1 mm 2 m/S 636 mmHg 69%
    17:00 +2°C° 0,1 mm 2 m/S 636 mmHg 72%
    18:00 +3°C° 0,1 mm 1 m/S 636 mmHg 75%
    19:00 +2°C° 0,1 mm 1 m/S 636 mmHg 76%
    20:00 +2°C° 0,1 mm 1 m/S 636 mmHg 77%
    21:00 +2°C° 0,1 mm 1 m/S 636 mmHg 77%
    22:00 +2°C° 0,1 mm 1 m/S 636 mmHg 78%
    23:00 +2°C° 0,1 mm 1 m/S 636 mmHg 79%

    30 November, Donnerstag

    Zeit Temperatur Niederschläge Wind Luftdruck Luftfeuchtigkeit
    00:00 +2°C° 0,1 mm 1 m/S 635 mmHg 79%
    01:00 +2°C° 0,1 mm 1 m/S 635 mmHg 80%
    02:00 +2°C° 0,1 mm 1 m/S 635 mmHg 80%
    03:00 +2°C° 0,1 mm 1 m/S 635 mmHg 81%
    04:00 +2°C° 0,1 mm 1 m/S 635 mmHg 81%
    05:00 +2°C° 0,1 mm 1 m/S 635 mmHg 82%
    06:00 +2°C° 0,1 mm 1 m/S 635 mmHg 82%
    07:00 +2°C° 0,1 mm 1 m/S 635 mmHg 81%
    08:00 +3°C° 0,1 mm 1 m/S 635 mmHg 79%
    09:00 +3°C° 0,1 mm 1 m/S 636 mmHg 78%
    10:00 +4°C° 0,1 mm 1 m/S 636 mmHg 76%
    11:00 +5°C° 0,1 mm 1 m/S 636 mmHg 74%
    12:00 +5°C° 0,1 mm 2 m/S 636 mmHg 72%
    13:00 +5°C° 0,1 mm 1 m/S 635 mmHg 73%
    14:00 +5°C° 0,1 mm 1 m/S 635 mmHg 73%
    15:00 +5°C° 0,1 mm 1 m/S 635 mmHg 74%
    16:00 +4°C° 0,2 mm 1 m/S 635 mmHg 77%
    17:00 +4°C° 0,2 mm 1 m/S 636 mmHg 80%
    18:00 +2°C° 0,2 mm 0 m/S 636 mmHg 83%
    19:00 +2°C° 0,4 mm 0 m/S 636 mmHg 84%
    20:00 +2°C° 0,4 mm 0 m/S 636 mmHg 85%
    21:00 +2°C° 0,4 mm 0 m/S 636 mmHg 86%
    22:00 +2°C° 0,4 mm 0 m/S 637 mmHg 87%
    23:00 +2°C° 0,4 mm 0 m/S 637 mmHg 88%
    Mehr zeigen